HG8LXL-2 Weather Reports


time (UTC)temp
F
wind
direction
speed
knots
gust
knots
rain 1hr
in
rain 24hr
in
rain mn
in
humidity
%
barometer
mb
20260507124004 73 0.0 0.0 0.00 0.00 0.00 61 1011.5
20260507123505 73 0.0 0.0 0.00 0.00 0.00 62 1011.5
20260507123004 74 0.0 0.0 0.00 0.00 0.00 61 1011.5
20260507122504 75 0.0 0.0 0.00 0.00 0.00 59 1011.5
20260507122004 74 0.0 0.0 0.00 0.00 0.00 61 1011.4
20260507121504 74 0.0 0.0 0.00 0.00 0.00 61 1011.3
20260507121004 72 0.0 0.0 0.00 0.00 0.00 64 1011.3
20260507120504 75 0.0 0.0 0.00 0.00 0.00 61 1011.2
20260507120004 75 0.0 0.0 0.00 0.00 0.00 63 1011.3
20260507115504 76 0.0 0.0 0.00 0.00 0.00 58 1011.1
20260507115004 76 0.0 0.0 0.00 0.00 0.00 63 1011.2
20260507114504 74 0.0 0.0 0.00 0.00 0.00 66 1011.3
20260507114004 73 0.0 0.0 0.00 0.00 0.00 66 1011.2
20260507113504 72 0.0 0.0 0.00 0.00 0.00 66 1011.3
20260507113004 72 0.0 0.0 0.00 0.00 0.00 67 1011.3
20260507112504 71 0.0 0.0 0.00 0.00 0.00 66 1011.4
20260507112004 73 0.0 0.0 0.00 0.00 0.00 60 1011.4
20260507111504 75 0.0 0.0 0.00 0.00 0.00 50 1011.2
20260507111003 80 0.0 0.0 0.00 0.00 0.00 39 1010.7
20260507110503 81 0.0 0.0 0.00 0.00 0.00 37 1010.5
20260507110004 83 0.0 0.0 0.00 0.00 0.00 35 1010.3
20260507105504 84 0.0 0.0 0.00 0.00 0.00 34 1010.4
20260507105004 84 0.0 0.0 0.00 0.00 0.00 35 1010.4
20260507104504 82 0.0 0.0 0.00 0.00 0.00 36 1010.5
20260507104004 83 0.0 0.0 0.00 0.00 0.00 35 1010.6
20260507103504 83 0.0 0.0 0.00 0.00 0.00 35 1010.5
20260507103004 84 0.0 0.0 0.00 0.00 0.00 35 1010.5
20260507102503 82 0.0 0.0 0.00 0.00 0.00 34 1010.6
20260507102003 81 0.0 0.0 0.00 0.00 0.00 36 1010.6
20260507101504 83 0.0 0.0 0.00 0.00 0.00 37 1010.6
20260507101003 81 0.0 0.0 0.00 0.00 0.00 39 1010.8
20260507100503 81 0.0 0.0 0.00 0.00 0.00 38 1010.8
20260507100004 80 0.0 0.0 0.00 0.00 0.00 42 1010.9
20260507095503 79 0.0 0.0 0.00 0.00 0.00 42 1011.0
20260507095003 81 0.0 0.0 0.00 0.00 0.00 40 1010.9
20260507094504 81 0.0 0.0 0.00 0.00 0.00 41 1011.0
20260507094004 77 0.0 0.0 0.00 0.00 0.00 45 1011.1
20260507093504 79 0.0 0.0 0.00 0.00 0.00 44 1011.0
20260507093004 79 0.0 0.0 0.00 0.00 0.00 45 1011.1
20260507092504 78 0.0 0.0 0.00 0.00 0.00 46 1011.1
20260507092003 76 0.0 0.0 0.00 0.00 0.00 47 1011.1
20260507091503 75 0.0 0.0 0.00 0.00 0.00 49 1011.0
20260507091003 75 0.0 0.0 0.00 0.00 0.00 49 1011.1
20260507090504 75 0.0 0.0 0.00 0.00 0.00 50 1011.0
20260507090005 74 0.0 0.0 0.00 0.00 0.00 50 1011.0
20260507085503 74 0.0 0.0 0.00 0.00 0.00 49 1011.1
20260507085003 75 0.0 0.0 0.00 0.00 0.00 48 1011.0
20260507084503 74 0.0 0.0 0.00 0.00 0.00 48 1010.9
20260507084003 74 0.0 0.0 0.00 0.00 0.00 48 1010.8
20260507083503 75 0.0 0.0 0.00 0.00 0.00 48 1010.8
20260507083004 75 0.0 0.0 0.00 0.00 0.00 47 1010.7
20260507082504 75 0.0 0.0 0.00 0.00 0.00 47 1010.7
20260507082004 75 0.0 0.0 0.00 0.00 0.00 47 1010.6
20260507081505 76 0.0 0.0 0.00 0.00 0.00 47 1010.4
20260507081003 77 0.0 0.0 0.00 0.00 0.00 47 1010.5
20260507080503 76 0.0 0.0 0.00 0.00 0.00 49 1010.4
20260507080004 77 0.0 0.0 0.00 0.00 0.00 48 1010.4
20260507075503 78 0.0 0.0 0.00 0.00 0.00 47 1010.3
20260507075003 77 0.0 0.0 0.00 0.00 0.00 49 1010.4
20260507074503 77 0.0 0.0 0.00 0.00 0.00 51 1010.4
20260507074003 76 0.0 0.0 0.00 0.00 0.00 51 1010.3
20260507073503 76 0.0 0.0 0.00 0.00 0.00 51 1010.4
20260507073004 76 0.0 0.0 0.00 0.00 0.00 54 1010.3
20260507072503 75 0.0 0.0 0.00 0.00 0.00 54 1010.5
20260507072003 75 0.0 0.0 0.00 0.00 0.00 55 1010.4
20260507071504 76 0.0 0.0 0.00 0.00 0.00 54 1010.4
20260507071003 75 0.0 0.0 0.00 0.00 0.00 56 1010.4
20260507070503 75 0.0 0.0 0.00 0.00 0.00 57 1010.4
20260507070007 74 0.0 0.0 0.00 0.00 0.00 58 1010.4
20260507065503 74 0.0 0.0 0.00 0.00 0.00 58 1010.3
20260507065004 74 0.0 0.0 0.00 0.00 0.00 59 1010.2
20260507064504 73 0.0 0.0 0.00 0.00 0.00 60 1010.3
20260507064003 73 0.0 0.0 0.00 0.00 0.00 60 1010.3
20260507063503 73 0.0 0.0 0.00 0.00 0.00 61 1010.3
20260507063004 73 0.0 0.0 0.00 0.00 0.00 61 1010.2
20260507062503 73 0.0 0.0 0.00 0.00 0.00 60 1010.2
20260507062003 74 0.0 0.0 0.00 0.00 0.00 61 1010.1
20260507061503 73 0.0 0.0 0.00 0.00 0.00 61 1010.1
20260507061003 72 0.0 0.0 0.00 0.00 0.00 61 1010.1
20260507060003 72 0.0 0.0 0.00 0.00 0.00 62 1010.0
20260507055503 71 0.0 0.0 0.00 0.00 0.00 61 1010.0
20260507055003 71 0.0 0.0 0.00 0.00 0.00 60 1010.0
20260507054503 71 0.0 0.0 0.00 0.00 0.00 59 1010.0
20260507054003 71 0.0 0.0 0.00 0.00 0.00 59 1010.0
20260507053503 72 0.0 0.0 0.00 0.00 0.00 57 1010.0
20260507053004 72 0.0 0.0 0.00 0.00 0.00 55 1009.9
20260507052503 72 0.0 0.0 0.00 0.00 0.00 54 1009.8
20260507052003 72 0.0 0.0 0.00 0.00 0.00 56 1009.8
20260507051503 72 0.0 0.0 0.00 0.00 0.00 55 1009.7
20260507051003 72 0.0 0.0 0.00 0.00 0.00 55 1009.7
20260507050503 72 0.0 0.0 0.00 0.00 0.00 56 1009.5
20260507050003 72 0.0 0.0 0.00 0.00 0.00 57 1009.6
20260507045503 72 0.0 0.0 0.00 0.00 0.00 57 1009.4
20260507045003 71 0.0 0.0 0.00 0.00 0.00 57 1009.5
20260507044503 71 0.0 0.0 0.00 0.00 0.00 58 1009.4
20260507044003 71 0.0 0.0 0.00 0.00 0.00 59 1009.3
20260507043503 71 0.0 0.0 0.00 0.00 0.00 58 1009.3
20260507043003 71 0.0 0.0 0.00 0.00 0.00 58 1009.2
20260507042503 71 0.0 0.0 0.00 0.00 0.00 58 1009.2
20260507042003 71 0.0 0.0 0.00 0.00 0.00 58 1009.2
20260507041503 70 0.0 0.0 0.00 0.00 0.00 59 1009.2
20260507041003 70 0.0 0.0 0.00 0.00 0.00 60 1009.2
20260507040503 70 0.0 0.0 0.00 0.00 0.00 60 1009.2
20260507040004 70 0.0 0.0 0.00 0.00 0.00 60 1009.2
20260507035503 70 0.0 0.0 0.00 0.00 0.00 57 1009.0
20260507035003 71 0.0 0.0 0.00 0.00 0.00 57 1008.8
20260507034503 71 0.0 0.0 0.00 0.00 0.00 57 1008.8
20260507034003 71 0.0 0.0 0.00 0.00 0.00 57 1008.7
20260507033503 71 0.0 0.0 0.00 0.00 0.00 56 1008.8
20260507033003 71 0.0 0.0 0.00 0.00 0.00 57 1008.7
20260507032504 70 0.0 0.0 0.00 0.00 0.00 57 1008.7
20260507032003 70 0.0 0.0 0.00 0.00 0.00 58 1008.7
20260507031503 70 0.0 0.0 0.00 0.00 0.00 58 1008.6
20260507031003 70 0.0 0.0 0.00 0.00 0.00 58 1008.5
20260507030503 70 0.0 0.0 0.00 0.00 0.00 58 1008.4
20260507030003 70 0.0 0.0 0.00 0.00 0.00 57 1008.5
20260507025504 70 0.0 0.0 0.00 0.00 0.00 57 1008.4
20260507025003 71 0.0 0.0 0.00 0.00 0.00 57 1008.4
20260507024503 71 0.0 0.0 0.00 0.00 0.00 57 1008.5
20260507024003 71 0.0 0.0 0.00 0.00 0.00 57 1008.3
20260507023503 71 0.0 0.0 0.00 0.00 0.00 56 1008.3
20260507023003 71 0.0 0.0 0.00 0.00 0.00 56 1008.3
20260507022513 71 0.0 0.0 0.00 0.00 0.00 57 1008.4
20260507022003 72 0.0 0.0 0.00 0.00 0.00 56 1008.3
20260507021503 71 0.0 0.0 0.00 0.00 0.00 56 1008.4
20260507021003 71 0.0 0.0 0.00 0.00 0.00 56 1008.3
20260507020503 72 0.0 0.0 0.00 0.00 0.00 56 1008.3
20260507020003 71 0.0 0.0 0.00 0.00 0.00 56 1008.2
20260507015503 71 0.0 0.0 0.00 0.00 0.00 55 1008.3
20260507015004 71 0.0 0.0 0.00 0.00 0.00 55 1008.2
20260507014503 71 0.0 0.0 0.00 0.00 0.00 56 1008.2
20260507014003 71 0.0 0.0 0.00 0.00 0.00 57 1008.1
20260507013503 71 0.0 0.0 0.00 0.00 0.00 55 1008.2
20260507013003 71 0.0 0.0 0.00 0.00 0.00 56 1008.2
20260507012504 71 0.0 0.0 0.00 0.00 0.00 56 1008.2
20260507012003 72 0.0 0.0 0.00 0.00 0.00 55 1008.0
20260507011503 72 0.0 0.0 0.00 0.00 0.00 54 1007.9
20260507011003 72 0.0 0.0 0.00 0.00 0.00 53 1007.8
20260507010503 72 0.0 0.0 0.00 0.00 0.00 53 1007.8
20260507010003 72 0.0 0.0 0.00 0.00 0.00 52 1007.7
20260507005503 72 0.0 0.0 0.00 0.00 0.00 52 1007.6
20260507005003 71 0.0 0.0 0.00 0.00 0.00 53 1007.6
20260507004503 72 0.0 0.0 0.00 0.00 0.00 52 1007.5
20260507004003 72 0.0 0.0 0.00 0.00 0.00 50 1007.6
20260507003503 72 0.0 0.0 0.00 0.00 0.00 49 1007.7
20260507003003 73 0.0 0.0 0.00 0.00 0.00 45 1007.8
20260507002503 73 0.0 0.0 0.00 0.00 0.00 44 1007.9
20260507002003 73 0.0 0.0 0.00 0.00 0.00 43 1007.9
20260507001503 73 0.0 0.0 0.00 0.00 0.00 44 1007.9
20260507001003 72 0.0 0.0 0.00 0.00 0.00 44 1007.8
20260507000503 72 0.0 0.0 0.00 0.00 0.00 45 1007.8
20260507000003 71 0.0 0.0 0.00 0.00 0.00 45 1007.8
20260506235503 72 0.0 0.0 0.00 0.00 0.00 44 1007.8
20260506235003 72 0.0 0.0 0.00 0.00 0.00 43 1007.9
20260506234503 72 0.0 0.0 0.00 0.00 0.00 43 1007.9
20260506234003 71 0.0 0.0 0.00 0.00 0.00 44 1008.0
20260506233503 71 0.0 0.0 0.00 0.00 0.00 44 1008.0
20260506233003 72 0.0 0.0 0.00 0.00 0.00 43 1008.0
20260506232503 72 0.0 0.0 0.00 0.00 0.00 42 1008.1
20260506232003 71 0.0 0.0 0.00 0.00 0.00 44 1008.2
20260506231504 70 0.0 0.0 0.00 0.00 0.00 44 1008.2
20260506231003 70 0.0 0.0 0.00 0.00 0.00 45 1008.3
20260506230503 70 0.0 0.0 0.00 0.00 0.00 44 1008.4
20260506230003 71 0.0 0.0 0.00 0.00 0.00 44 1008.5
20260506225503 71 0.0 0.0 0.00 0.00 0.00 43 1008.5
20260506225003 70 0.0 0.0 0.00 0.00 0.00 44 1008.5
20260506224503 71 0.0 0.0 0.00 0.00 0.00 43 1008.5
20260506224003 71 0.0 0.0 0.00 0.00 0.00 44 1008.5
20260506223503 71 0.0 0.0 0.00 0.00 0.00 43 1008.4
20260506223003 71 0.0 0.0 0.00 0.00 0.00 43 1008.5
20260506222503 70 0.0 0.0 0.00 0.00 0.00 43 1008.5
20260506222004 70 0.0 0.0 0.00 0.00 0.00 43 1008.3
20260506221504 70 0.0 0.0 0.00 0.00 0.00 43 1008.3
20260506221003 70 0.0 0.0 0.00 0.00 0.00 43 1008.2
20260506220503 69 0.0 0.0 0.00 0.00 0.00 44 1008.2
20260506220003 70 0.0 0.0 0.00 0.00 0.00 42 1007.9
20260506215503 71 0.0 0.0 0.00 0.00 0.00 42 1007.8
20260506215003 71 0.0 0.0 0.00 0.00 0.00 41 1007.8
20260506214503 72 0.0 0.0 0.00 0.00 0.00 40 1007.7
20260506214003 71 0.0 0.0 0.00 0.00 0.00 40 1007.6
20260506213503 72 0.0 0.0 0.00 0.00 0.00 39 1007.6
20260506213003 73 0.0 0.0 0.00 0.00 0.00 38 1007.5
20260506212503 73 0.0 0.0 0.00 0.00 0.00 38 1007.4
20260506212003 73 0.0 0.0 0.00 0.00 0.00 37 1007.5
20260506211503 73 0.0 0.0 0.00 0.00 0.00 38 1007.5
20260506211003 73 0.0 0.0 0.00 0.00 0.00 37 1007.5
20260506210503 72 0.0 0.0 0.00 0.00 0.00 39 1007.5
20260506210003 72 0.0 0.0 0.00 0.00 0.00 40 1007.4
20260506205503 73 0.0 0.0 0.00 0.00 0.00 39 1007.3
20260506205003 73 0.0 0.0 0.00 0.00 0.00 37 1007.1
20260506204503 73 0.0 0.0 0.00 0.00 0.00 38 1007.3
20260506204003 72 0.0 0.0 0.00 0.00 0.00 40 1007.2
20260506203503 75 0.0 0.0 0.00 0.00 0.00 36 1007.0
20260506203003 75 0.0 0.0 0.00 0.00 0.00 38 1006.9
20260506202503 75 0.0 0.0 0.00 0.00 0.00 38 1007.0
20260506202003 75 0.0 0.0 0.00 0.00 0.00 38 1006.9
20260506201504 75 0.0 0.0 0.00 0.00 0.00 38 1006.8
20260506201004 75 0.0 0.0 0.00 0.00 0.00 38 1006.8
20260506200503 74 0.0 0.0 0.00 0.00 0.00 38 1006.8
20260506200003 75 0.0 0.0 0.00 0.00 0.00 37 1006.8
20260506195503 75 0.0 0.0 0.00 0.00 0.00 36 1006.8
20260506195003 75 0.0 0.0 0.00 0.00 0.00 36 1006.7
20260506194503 76 0.0 0.0 0.00 0.00 0.00 35 1006.8
20260506194003 76 0.0 0.0 0.00 0.00 0.00 35 1006.8
20260506193503 76 0.0 0.0 0.00 0.00 0.00 35 1006.9
20260506193003 77 0.0 0.0 0.00 0.00 0.00 34 1006.8
20260506192503 77 0.0 0.0 0.00 0.00 0.00 34 1006.8
20260506192003 77 0.0 0.0 0.00 0.00 0.00 34 1006.7
20260506191503 77 0.0 0.0 0.00 0.00 0.00 34 1006.7
20260506191004 76 0.0 0.0 0.00 0.00 0.00 34 1006.7
20260506190503 77 0.0 0.0 0.00 0.00 0.00 34 1006.7
20260506190003 78 0.0 0.0 0.00 0.00 0.00 32 1006.7
20260506185503 78 0.0 0.0 0.00 0.00 0.00 32 1006.5
20260506185003 78 0.0 0.0 0.00 0.00 0.00 32 1006.5
20260506184503 79 0.0 0.0 0.00 0.00 0.00 31 1006.5
20260506184003 79 0.0 0.0 0.00 0.00 0.00 31 1006.4
20260506183503 79 0.0 0.0 0.00 0.00 0.00 31 1006.4
20260506183003 80 0.0 0.0 0.00 0.00 0.00 30 1006.3
20260506182503 79 0.0 0.0 0.00 0.00 0.00 30 1006.3
20260506182004 80 0.0 0.0 0.00 0.00 0.00 30 1006.3
20260506181503 80 0.0 0.0 0.00 0.00 0.00 30 1006.1
20260506181003 81 0.0 0.0 0.00 0.00 0.00 29 1006.2
20260506180503 81 0.0 0.0 0.00 0.00 0.00 29 1006.2
20260506180004 81 0.0 0.0 0.00 0.00 0.00 28 1006.1
20260506175503 82 0.0 0.0 0.00 0.00 0.00 27 1006.1
20260506175003 82 0.0 0.0 0.00 0.00 0.00 27 1006.1
20260506174503 82 0.0 0.0 0.00 0.00 0.00 27 1006.0
20260506174003 82 0.0 0.0 0.00 0.00 0.00 27 1006.0
20260506173503 83 0.0 0.0 0.00 0.00 0.00 26 1006.0
20260506173003 84 0.0 0.0 0.00 0.00 0.00 26 1006.0
20260506172503 85 0.0 0.0 0.00 0.00 0.00 24 1006.0
20260506172003 85 0.0 0.0 0.00 0.00 0.00 24 1006.0
20260506171503 85 0.0 0.0 0.00 0.00 0.00 24 1006.0
20260506171003 86 0.0 0.0 0.00 0.00 0.00 23 1006.0
20260506170503 86 0.0 0.0 0.00 0.00 0.00 23 1005.9
20260506170003 86 0.0 0.0 0.00 0.00 0.00 23 1005.9
20260506165503 86 0.0 0.0 0.00 0.00 0.00 22 1005.9
20260506165003 86 0.0 0.0 0.00 0.00 0.00 22 1005.9
20260506164503 86 0.0 0.0 0.00 0.00 0.00 21 1005.9
20260506164003 86 0.0 0.0 0.00 0.00 0.00 22 1005.9
20260506162503 86 0.0 0.0 0.00 0.00 0.00 21 1005.9
20260506161503 86 0.0 0.0 0.00 0.00 0.00 21 1005.9
20260506161005 87 0.0 0.0 0.00 0.00 0.00 21 1006.0
20260506154504 86 0.0 0.0 0.00 0.00 0.00 20 1006.1
20260506154003 87 0.0 0.0 0.00 0.00 0.00 19 1006.2
20260506151503 87 0.0 0.0 0.00 0.00 0.00 19 1006.2
20260506151003 88 0.0 0.0 0.00 0.00 0.00 19 1006.2
20260506145003 89 0.0 0.0 0.00 0.00 0.00 18 1006.2
20260506144003 89 0.0 0.0 0.00 0.00 0.00 19 1006.3
20260506143503 90 0.0 0.0 0.00 0.00 0.00 19 1006.2
20260506143003 89 0.0 0.0 0.00 0.00 0.00 18 1006.4
20260506142503 87 0.0 0.0 0.00 0.00 0.00 20 1006.5
20260506142003 87 0.0 0.0 0.00 0.00 0.00 20 1006.6
20260506141503 88 0.0 0.0 0.00 0.00 0.00 20 1006.4
20260506141003 89 0.0 0.0 0.00 0.00 0.00 19 1006.5
20260506140503 89 0.0 0.0 0.00 0.00 0.00 19 1006.6
20260506140003 88 0.0 0.0 0.00 0.00 0.00 20 1006.6
20260506135503 88 0.0 0.0 0.00 0.00 0.00 19 1006.6
20260506135003 88 0.0 0.0 0.00 0.00 0.00 20 1006.7
20260506134503 86 0.0 0.0 0.00 0.00 0.00 20 1006.8
20260506134003 86 0.0 0.0 0.00 0.00 0.00 21 1006.8
20260506133503 87 0.0 0.0 0.00 0.00 0.00 20 1006.8
20260506133003 87 0.0 0.0 0.00 0.00 0.00 20 1006.9
20260506132503 87 0.0 0.0 0.00 0.00 0.00 20 1007.0
20260506132003 87 0.0 0.0 0.00 0.00 0.00 20 1007.0
20260506131503 87 0.0 0.0 0.00 0.00 0.00 20 1007.0
20260506131003 86 0.0 0.0 0.00 0.00 0.00 21 1007.0
20260506130503 87 0.0 0.0 0.00 0.00 0.00 20 1007.2
20260506130003 87 0.0 0.0 0.00 0.00 0.00 20 1007.2
20260506125503 87 0.0 0.0 0.00 0.00 0.00 20 1007.3
20260506125003 88 0.0 0.0 0.00 0.00 0.00 20 1007.3
20260506124503 88 0.0 0.0 0.00 0.00 0.00 20 1007.3